Tracking 30058 objects as of 10-Dec-2024
HD Live streaming from Space Station
objects crossing your sky now

STARLINK-31330

Track STARLINK-31330 now!
10-day predictions
STARLINK-31330 is classified as:


NORAD ID: 58951
Int'l Code: 2024-027W
Perigee: 474.2 km
Apogee: 478.5 km
Inclination: 53.2 °
Period: 94.0 minutes
Semi major axis: 6847 km
RCS: Unknown
Launch date: February 10, 2024
Source: United States (US)
Launch site: AIR FORCE WESTERN TEST RANGE (AFWTR)
Your satellite tracking list
Your tracking list is empty




NASA's NSSDC Master Catalog

Two Line Element Set (TLE):
1 58951U 24027W   24345.06343881  .00049933  00000-0  15843-2 0  9995
2 58951  53.1596 261.2829 0003167 152.1071 208.0101 15.32214745 47572
Source of the keplerian elements: AFSPC